sat.trackr.live / text

‹ back to catalog

STARLINK-6266

NORAD 56542 · 2023-065AR

PAYLOAD ACTIVE UNKNOWN

§ Identity

Operator
Country
US
Launch date
2023-05-14
Launch site
AFETR
Launch vehicle
Mass (kg)
RCS (m²)

Purposes: comms

External: N2YO · Heavens-Above · Gunter

§ Orbital elements

Epoch: 2026-05-25T01:28:38.828928Z

Period
94.27 min
Inclination
43.0002°
Eccentricity
0.0000932
Mean motion
15.27602545 rev/d
Perigee alt
482.3 km
Apogee alt
483.6 km
Semi-major
6,861.1 km
B*
1.4485e-4
RAAN
155.5640°
Arg perigee
275.3351°
Mean anomaly
84.7394°
Rev number
16,811

§ Raw data

STARLINK-62661 56542U 23065AR  26145.06156052  .00003729  00000+0  14485-3 0  99962 56542  43.0002 155.5640 0000932 275.3351  84.7394 15.27602545168118

JSON: /api/v1/satellites/56542 · /tle

For live sub-satellite position, see the globe view (requires WebGL).

§ Visibility from observer

Set your observer location to see the next 7 days of passes ≥ 10°. The values pass through the URL so the page stays shareable.

No JS? Fill the form by hand. The geolocation button needs JavaScript.